Regional Weather Roundup
Issued by NWS Mt. Holly, NJ

Home | Current Version | Previous Version | Text Only | Print | Product List | Glossary On
Versions: 1 2 3 4 5 6 7 8 9 10 11 12 13 14 15 16 17 18 19 20 21 22 23 24 25 26 27 28 29 30 31 32 33 34 35 36 37 38 39 40 41 42 43 44 45 46 47 48 49 50
000
ASUS41 KPHI 200910
RWRPHI

REGIONAL WEATHER ROUNDUP
NATIONAL WEATHER SERVICE MOUNT HOLLY NJ
400 AM EST SAT DEC 20 2014

NOTE:  "FAIR" INDICATES FEW OR NO CLOUDS BELOW 12,000 FEET WITH NO
SIGNIFICANT WEATHER AND/OR OBSTRUCTIONS TO VISIBILITY.

 * = STATION DOES NOT REPORT PRECIPITATION (E.G. RAIN, SNOW, ETC.)
        OR FOG.

NJZ015>026-201000-
SOUTHERN NEW JERSEY

CITY           SKY/WX    TMP DP  RH WIND       PRES   REMARKS
POMONA         CLOUDY    27  23  85 CALM      30.23R
RIO GRANDE*    CLOUDY    25  18  74 CALM      30.23S
MILLVILLE      CLOUDY    27  24  89 W3        30.23R
WRIGHTSTOWN    CLOUDY    31  22  68 N5        30.20R WCI  26
MOUNT HOLLY    CLOUDY    31  25  78 CALM      30.23R
TRENTON        CLOUDY    32  21  64 N6        30.22R WCI  26

$$
NJZ001>014-201000-
NORTHERN NEW JERSEY

CITY           SKY/WX    TMP DP  RH WIND       PRES   REMARKS
SUSSEX         CLOUDY    29  20  69 NE6       30.20R WCI  23
ANDOVER*         N/A     28  20  71 N3        30.21R
MORRISTOWN     CLOUDY    34  21  60 CALM      30.22R
NEWARK         CLOUDY    32  21  64 N8        30.22R WCI  25
TETERBORO      CLOUDY    32  20  61 N5        30.22R WCI  27
CALDWELL       CLOUDY    31  21  66 NE5       30.22R WCI  26
SOMERVILLE     CLOUDY    31  21  66 NW6       30.21R WCI  25
ALLAIRE*       CLOUDY    30  18  59 NW6       30.21R WCI  24
TOMS RIVER*    CLOUDY    30  21  69 N5        30.22S WCI  25

$$
PAZ043-044-047-054-055-060>062-066>071-201000-
EASTERN PENNSYLVANIA

CITY           SKY/WX    TMP DP  RH WIND       PRES   REMARKS
PHILADELPHIA   CLOUDY    34  22  61 N6        30.24R WCI  29
NORTH PHILA    CLOUDY    34  21  59 N8        30.24R WCI  27
BLUE BELL      MOCLDY    34  25  69 CALM      30.21S
DOYLESTOWN     CLOUDY    30  22  72 N7        30.21R WCI  23
QUAKERTOWN*    CLOUDY    30  23  74 N3        30.22R
POTTSTOWN      CLOUDY    31  21  66 N7        30.23S WCI  24
LANCASTER      CLOUDY    31  21  66 NW8       30.23R WCI  23
COATESVILLE    CLOUDY    32  25  74 NW8       30.21R WCI  25
READING        CLOUDY    32  20  61 N8        30.22S WCI  25
ALLENTOWN      CLOUDY    31  20  63 N8        30.22S WCI  23
MOUNT POCONO   CLOUDY    23  18  81 N6        30.11R WCI  16
HAZLETON       CLOUDY    28  21  74 NW8       30.17S WCI  20
WILKES BARRE   CLOUDY    29  20  69 N9        30.18R WCI  20

$$
DEZALL-MDZ008-012-015-019-020-201000-
DELAWARE AND EASTERN MARYLAND

CITY           SKY/WX    TMP DP  RH WIND       PRES   REMARKS
WILMINGTON     CLOUDY    32  24  72 W7        30.24R WCI  26
DOVER          CLOUDY    28  23  81 W6        30.22R WCI  21
GEORGETOWN     CLEAR     28  21  75 CALM      30.24S
EASTON         CLEAR     29  26  89 NW3       30.28F
PATUXENT       CLEAR     31  22  69 NW7       30.26S WCI  24
OCEAN CITY     CLEAR     27  23  85 NW5       30.25R WCI  22
WALLOPS ISLAND CLEAR     28  24  85 N6        30.25S WCI  22
CAMBRIDGE      CLEAR     32  27  80 NW3       30.25S
SALISBURY      CLEAR     27  21  78 CALM      30.25S

$$
PAZ001-021-NYZ056-072-MDZ011-DCZ001-201000-
OTHER NEARBY LOCATIONS

CITY           SKY/WX    TMP DP  RH WIND       PRES   REMARKS
HARRISBURG     CLOUDY    31  20  63 NW12      30.24S WCI  22
STATE COLLEGE  CLOUDY    26  18  73 CALM      30.23R
WILLIAMSPORT   CLOUDY    31  19  61 W6        30.23R WCI  25
BINGHAMTON     CLOUDY    24  21  88 N7        30.13S WCI  16
NEW YORK CITY  CLOUDY    31  19  61 NE7       30.24R WCI  24
BALTIMORE      PTCLDY    27  19  72 W5        30.25S WCI  22
WASHINGTON DC  PTCLDY    32  20  61 CALM      30.28R

$$



USA.gov is the U.S. government's official web portal to all federal, state and local government web resources and services.